Location: Aimons
(45.2500°N, 2.3167°E)
Time: 14:33:41
(UTC+00:00)

Daily predictions for brighter satellites

Satellite Brightness Start Highest point End
(mag) Time Altitude Azimuth Time Altitude Azimuth Time Altitude Azimuth
TSX-5 4.5 20:06:52 10° SSW 20:11:25 84° ESE 20:17:24 10° NNE
Resurs 01 Rocket 1.7 20:12:12 10° SSE 20:16:38 82° ENE 20:21:07 10° NNW
COSMOS 2406 4.1 20:14:30 10° SSE 20:19:25 30° ESE 20:24:21 10° NE
Cosmos 2184 Rocket 4.3 20:18:21 10° N 20:24:25 53° ENE 20:30:28 10° SSE
Cosmos 1833 Rocket 2.8 20:19:25 10° S 20:24:52 56° ESE 20:30:22 10° NNE
H-2A R/B 2.3 20:22:26 10° NNE 20:26:55 85° WNW 20:31:25 10° SSW
Cosmos 1536 Rocket 3.5 20:26:40 10° S 20:30:57 67° E 20:35:17 10° NNE
Cosmos 1703 3.4 20:28:24 10° S 20:32:07 50° E 20:35:52 10° NNE
CARTOSAT-1 3.7 20:29:40 10° SSE 20:33:55 60° ENE 20:38:10 10° N
Cosmos 1741 Rocket 4.1 20:29:08 10° NNW 20:34:30 83° ENE 20:39:50 10° SSE
USA 245 3.6 20:32:04 10° SE 20:35:47 42° ENE 20:38:50 10° N
Ariane Rocket 3.0 20:32:51 10° SSE 20:37:57 89° WSW 20:43:04 10° NNW
CZ-4B R/B 1.4 20:43:38 10° N 20:46:31 64° WNW 20:49:22 10° SSW
ARIANE 5 R/B 4.2 20:44:14 11° ESE 20:47:33 23° ENE 20:51:01 10° NNE
Terra 2.8 20:44:04 12° SE 20:47:54 33° ENE 20:52:08 10° N
ATLAS 2AS CENTAUR R/B 4.0 20:43:25 10° NW 20:49:29 33° WSW 20:55:13 10° S
SPOT 3 Rocket 3.6 20:44:23 10° SSE 20:49:33 76° ENE 20:54:47 10° N
SPOT 5 3.1 20:46:57 13° SE 20:50:35 46° ENE 20:54:44 10° N
USA 276 3.7 20:50:03 10° WNW 20:52:49 32° N 20:55:36 10° ENE
RESURS DK-1 3.0 20:49:01 10° NW 20:53:02 51° WSW 20:56:54 11° S
Cosmos 1455 3.9 20:52:11 10° NNW 20:55:36 31° W 20:59:00 10° SSW
Cosmos 1726 Rocket 4.2 20:54:11 10° N 20:58:16 39° ENE 21:01:15 17° SE
Cosmos 1850 Rocket 4.5 20:55:00 10° NNW 21:00:05 57° WSW 21:05:08 10° S
Cosmos 1331 Rocket 4.1 20:56:40 10° SSW 21:01:58 87° WNW 21:07:18 10° NNE
Cosmos 2082 Rocket 2.5 20:57:38 10° S 21:03:05 47° ESE 21:08:31 10° NE
IRAS Rocket 4.3 20:57:30 10° NNE 21:03:07 86° WNW 21:08:40 10° SSW
Cosmos 2074 Rocket 4.2 20:58:30 10° N 21:04:46 77° W 21:10:58 10° S
Cosmos 2360 4.3 21:01:27 10° NNW 21:07:13 78° WSW 21:11:58 15° SSE
Helios 1A Rocket 3.0 21:04:55 17° SSE 21:07:54 62° ENE 21:11:59 10° N
Spot 2 Rocket 3.5 21:04:02 15° SSE 21:08:17 74° ENE 21:13:24 10° N
Cosmos 1328 3.9 21:05:03 14° S 21:08:23 57° E 21:12:18 10° NNE
Cosmos 2084 Rocket 3.2 21:07:17 10° NW 21:11:13 82° SW 21:13:53 21° SSE
GEOS 3 Rocket 4.4 21:09:16 13° S 21:13:31 42° WSW 21:18:23 10° NW
Nadezhda 1 Rocket 3.9 21:07:36 10° S 21:13:40 81° E 21:19:45 10° N
Lacrosse 5 4.3 21:12:52 10° W 21:14:27 11° WSW 21:16:01 10° SW
Cosmos 1295 Rocket 4.5 21:12:26 10° N 21:18:41 89° WSW 21:23:57 15° S
X-37B 1.5 21:22:40 10° W 21:25:07 26° SSW 21:25:27 26° SSW
ERS-1 Rocket 3.0 21:22:07 18° SSE 21:25:52 89° WSW 21:30:56 10° NNW
Cosmos 1892 3.3 21:26:27 26° SE 21:27:56 38° E 21:31:27 10° NNE
Cosmos 1302 Rocket 3.9 21:28:52 10° SSW 21:34:04 88° ESE 21:39:18 10° NNE
Cosmos 2228 4.1 21:31:52 10° NNW 21:35:48 39° W 21:39:23 12° SSW
Cosmos 2154 Rocket 4.4 21:33:01 10° NNW 21:39:06 60° W 21:44:32 13° S
Cosmos 1892 Rocket 3.5 21:38:01 19° S 21:41:07 88° E 21:45:30 10° N
Cosmos 968 Rocket 3.5 21:38:08 10° NNW 21:43:22 78° WSW 21:46:30 25° SSE
Cosmos 1697 Rocket 3.7 21:40:41 10° NW 21:45:48 37° WSW 21:49:50 15° SSW
Cosmos 1980 Rocket 2.3 21:41:01 10° NNW 21:46:43 73° WSW 21:50:07 25° SSE
SL-16 R/B 3.2 21:44:09 10° NNW 21:49:24 36° NE 21:52:57 18° ESE
Cosmos 1408 2.3 21:48:44 33° S 21:50:11 90° NW 21:53:39 10° N
Cosmos 2058 Rocket 3.0 21:46:44 10° N 21:51:12 83° E 21:53:20 30° SSE
Cosmos 1626 Rocket 4.2 21:50:06 30° SE 21:51:25 37° E 21:55:26 10° NNE
ATLAS 5 CENTAUR R/B 1.1 21:50:51 21° SSW 21:53:10 68° SE 21:57:14 10° NE
Resurs 01 Rocket 4.5 21:52:45 10° W 21:53:42 11° W 21:54:39 10° WNW
SL-8 Rocket 4.0 21:48:11 10° N 21:54:25 73° E 21:58:01 26° SSE
CZ-2C R/B 4.1 21:50:34 10° N 21:55:03 63° WNW 21:58:48 14° SSW
Cosmos 2369 4.1 21:49:30 10° NNW 21:55:07 56° WSW 21:58:31 24° S
USA 267 3.7 21:49:37 10° ENE 21:55:36 37° SE 21:59:31 20° S
SJ 16-02 3.0 21:57:56 10° N 22:01:37 25° ENE 22:03:35 18° E
SL-4 R/B 3.9 22:04:44 13° E 22:04:44 13° E 22:05:15 10° ENE
In-Cosmos 22 Rocket 4.1 21:59:05 26° S 22:02:16 71° E 22:07:41 10° NNE
COSMOS 2406 4.3 21:57:59 10° SW 22:03:30 46° WNW 22:09:03 10° NNE
Cosmos 1825 2.1 22:08:00 47° SSE 22:08:52 66° E 22:12:36 10° NNE
Cosmos 1867 4.1 22:07:38 10° NW 22:12:54 50° WSW 22:15:18 30° S
Cosmos 2366 rocket 4.0 22:08:26 10° N 22:14:49 86° E 22:18:15 30° S
Cosmos 1869 3.2 22:13:32 10° N 22:17:27 79° E 22:18:25 49° SSE
Cosmos 2218 Rocket 4.0 22:14:51 10° N 22:21:19 85° W 22:24:42 30° S
Cosmos 2322 Rocket 2.9 22:18:05 10° NNW 22:23:34 47° ENE 22:26:28 26° ESE
ARIANE 5 R/B 3.6 22:21:46 25° SSW 22:23:47 39° W 22:27:57 10° NNW
GP-B 3.3 22:20:10 10° N 22:24:34 66° W 22:26:27 33° SSW
Meteor 1-27 4.2 22:19:20 10° NNW 22:24:55 81° W 22:27:27 34° S
Terra 3.2 22:22:57 18° SW 22:25:38 30° W 22:29:50 10° NNW
SAR-Lupe-4 3.6 22:25:10 10° N 22:28:44 74° WNW 22:29:35 49° SW
USA 276 2.0 22:25:48 10° WNW 22:28:42 75° NNW 22:28:42 75° NNW
USA 234 4.1 22:23:49 10° E 22:30:01 47° NNE 22:36:15 10° NW
FALCON 9 DEB 3.3 22:27:38 10° WNW 22:30:31 55° WSW 22:30:31 55° WSW
BREEZE-M DEB (TANK) 4.0 22:33:16 10° WNW 22:36:19 61° NNE 22:47:17 10° E
Cosmos 2278 4.2 22:31:30 10° NW 22:37:00 50° WSW 22:39:18 32° SSW
Cosmos 1633 2.3 22:39:01 76° ESE 22:39:05 77° E 22:42:33 10° NNE
Okean 1-7 Rocket 4.2 22:40:57 30° SW 22:42:55 53° WNW 22:47:21 10° N
Cosmos 1758 Rocket 3.5 22:42:24 53° SSE 22:43:16 68° E 22:47:38 10° NNE
Cosmos 2333 Rocket 3.7 22:39:15 10° N 22:44:18 30° NE 22:48:06 15° ESE
Cosmos 2082 Rocket 3.9 22:42:19 10° WSW 22:47:21 31° NW 22:52:23 10° N
ASTEX 1 4.3 22:43:40 10° N 22:48:23 43° WNW 22:51:09 22° SW
Cosmos 1606 2.8 22:50:13 10° N 22:54:03 60° E 22:54:21 57° ESE
Cosmos-2242 2.9 22:50:11 10° N 22:54:27 86° E 22:55:10 61° SSE
Cosmos 1812 Rocket 3.6 22:50:45 10° NNW 22:55:12 75° W 22:56:09 53° SSW
ADEOS Rocket 3.7 22:53:13 31° SE 22:57:06 67° ENE 23:04:48 10° N
Cosmos 2360 Rocket 2.6 22:52:29 10° NNW 22:58:05 56° ENE 23:00:32 32° ESE
Cosmos 1340 Rocket 3.7 22:58:42 35° E 22:58:42 35° E 23:02:15 10° NNE
Gbstr 26 Del rocket 2.9 22:59:00 61° S 22:59:30 67° SE 23:04:20 10° ENE
Cosmos 1602 Rocket 4.1 23:05:35 37° SW 23:06:51 50° WNW 23:11:05 10° N
Cosmos 1821 Rocket 4.0 23:02:47 10° NNW 23:09:00 76° W 23:11:22 40° S
BREEZE-M DEB (TANK) 4.4 23:12:24 21° E 23:12:24 21° E 23:14:18 10° ENE
Cosmos 44 3.2 23:14:09 55° SE 23:14:21 56° ESE 23:18:44 10° NE
Cosmos 1833 4.3 23:14:26 45° SSE 23:15:41 55° ESE 23:21:09 10° NE
Cosmos 972 Rocket 4.4 23:11:24 10° NNW 23:16:38 60° ENE 23:18:42 37° SE
Cosmos 1354 Rocket 4.3 23:13:06 10° NNW 23:18:17 54° WSW 23:19:33 43° SSW
Cosmos 2237 4.2 23:15:10 10° NNW 23:20:52 68° WSW 23:22:30 46° S
ALOS 2 2.5 23:21:37 64° S 23:22:15 82° WSW 23:26:40 10° NNW
Spot 4 4.2 23:21:49 44° SW 23:22:50 53° W 23:27:32 10° NNW
CENTAUR R/B 3.7 23:22:31 23° ESE 23:23:03 23° ESE 23:28:00 10° ENE
ERS-2 3.0 23:20:03 10° NNE 23:22:56 37° ENE 23:22:56 37° ENE
Cosmos 2058 2.9 23:29:58 62° SW 23:30:28 71° W 23:34:39 10° N
Nadezhda 3 Rocket 4.2 23:28:02 35° SSW 23:30:40 65° W 23:36:49 10° N
COSMOS 2428 4.0 23:25:37 10° NNW 23:30:48 34° NE 23:34:37 16° ESE
Cosmos 1777 Rocket 4.1 23:26:44 10° NNW 23:31:58 63° WSW 23:33:07 50° SSW
H-2A R/B 3.6 23:27:57 10° N 23:32:09 69° WNW 23:32:48 57° SW
SL-16 R/B 2.9 23:28:18 10° NW 23:33:31 38° WSW 23:34:48 34° SW
Cosmos 1953 Rocket 3.4 23:33:03 68° S 23:33:36 84° E 23:38:02 10° N
Cosmos 2219 Rocket 2.9 23:28:21 10° NNW 23:33:51 48° ENE 23:36:40 27° ESE
ATLAS 5 CENTAUR R/B 4.1 23:35:25 10° WNW 23:38:13 18° NNW 23:41:17 10° NNE
USA 267 3.4 23:32:23 10° NE 23:38:55 74° NNW 23:45:26 10° WSW
SJ 16-02 2.2 23:36:11 10° NW 23:40:14 36° WSW 23:40:31 35° WSW
SL-4 R/B 2.4 23:40:05 32° WNW 23:41:21 50° NNW 23:44:57 10° NE
Cosmos 1825 Rocket 4.0 23:41:10 44° WSW 23:41:57 50° WNW 23:46:13 10° N
Meteor 2-2 Rocket 4.4 23:36:14 10° NNW 23:42:15 72° W 23:44:11 44° SSW
Cosmos 2322 4.3 23:37:28 10° NNW 23:43:01 52° ENE 23:45:45 28° ESE
Cosmos 2221 2.4 23:47:22 10° N 23:51:46 86° E 23:52:14 71° SSE
PSLV R/B 3.7 23:50:09 10° NNE 23:54:53 71° ESE 23:55:36 60° SSE
